[[[{"header":{"parameterUnit":"kt","parameterCategory":2,"dx":1,"dy":1,"la1":30.253999710083008,"la2":30.299108505249023,"lo1":-89.0895004272461,"lo2":-89.04439544677734,"nx":28,"ny":28,"refTime":"2022-10-28T21:00:00:Z","depth":"0","parameterNumber":2,"parameterNumberName":"U-component_of_CURRENTS"},"data":[0.3446,0.3566,0.363,0.3821,0.3946,0.405,0.4117,0.4119,0.4087,0.3774,0.3404,0.3237,0.2604,0.1708,0.1008,0.0966,0.0903,0.0768,0.0998,0.1327,0.1429,0.1526,0.1367,0.0562,0.0561,0.0195,0.0191,0.0188,0.3424,0.3516,0.3662,0.3846,0.3989,0.4104,0.4305,0.4329,0.4434,0.4456,0.4508,0.3979,0.3522,0.3116,0.232,0.201,0.1999,0.1873,0.1694,0.1769,0.2408,0.2259,0.163,0.1631,0.1631,0.1631,0.1632,0.1632,0.341,0.3479,0.363,0.3791,0.3964,0.414,0.4226,0.4428,0.4598,0.4704,0.4877,0.4797,0.4435,0.4071,0.3921,0.3209,0.3518,0.2952,0.2982,0.2984,0.2831,0.3524,0.3265,0.3269,0.3273,0.3277,0.328,0,0.3421,0.3473,0.3597,0.3775,0.3928,0.4108,0.432,0.4417,0.4677,0.4797,0.4982,0.5062,0.4975,0.4694,0.4467,0.4349,0.4033,0.4165,0.3925,0.3274,0.3096,0.3041,0.3933,0.3776,0.3784,0.379,0.3794,0.3797,0.3429,0.3482,0.3692,0.3787,0.3889,0.4069,0.4221,0.4435,0.4587,0.4835,0.4936,0.5035,0.513,0.5089,0.4898,0.4778,0.4671,0.4351,0.4273,0.3933,0.3886,0.3837,0.3812,0.3881,0.387,0.3861,0.3854,0,0.3443,0.3544,0.3685,0.3903,0.3974,0.4087,0.4338,0.4484,0.4629,0.4822,0.4874,0.5057,0.5115,0.5144,0.5198,0.5086,0.4845,0.4986,0.4598,0.4515,0.4018,0.3996,0.3744,0.369,0.475,0.4745,0.4741,0,0.351,0.3602,0.3781,0.3847,0.4004,0.4162,0.4335,0.4471,0.4666,0.4822,0.4922,0.5043,0.5122,0.5174,0.5164,0.5081,0.5205,0.4984,0.4948,0.4651,0.4605,0.43,0.4254,0.5211,0.5211,0.5211,0.5211,0,0.3531,0.3705,0.3805,0.3868,0.4094,0.418,0.43,0.4495,0.4614,0.4795,0.4875,0.5026,0.5094,0.5124,0.5133,0.5117,0.5191,0.5173,0.4968,0.4952,0.4609,0.4557,0.4329,0.5211,0.5211,0.5211,0.5212,0,0.3602,0.3696,0.3812,0.4021,0.4066,0.4152,0.4354,0.4463,0.4652,0.4725,0.4848,0.4912,0.5051,0.5003,0.5101,0.5071,0.5049,0.5057,0.5056,0.4821,0.4736,0.4383,0.4407,0.4117,0.4983,0.4982,0.4981,0,0.3616,0.373,0.381,0.3938,0.4015,0.4122,0.4236,0.4365,0.446,0.4592,0.4697,0.4817,0.4807,0.4868,0.4931,0.4979,0.5009,0.4979,0.4914,0.4911,0.4718,0.4826,0.4473,0.4411,0.4967,0.4968,0.4969,0,0.3619,0.3767,0.3774,0.3851,0.3967,0.4029,0.4137,0.4266,0.4361,0.4441,0.4569,0.4713,0.4741,0.4784,0.4827,0.4881,0.4976,0.4818,0.4817,0.4791,0.502,0.4826,0.4817,0.4974,0.4977,0.4979,0.4958,0,0.3728,0.3773,0.3788,0.3875,0.3938,0.3984,0.4083,0.4146,0.4196,0.4264,0.4407,0.4473,0.4566,0.4617,0.4626,0.4766,0.4698,0.4681,0.4598,0.4718,0.4688,0.4698,0.4536,0.4533,0.453,0.4528,0,0,0.3718,0.3753,0.3786,0.3839,0.389,0.3931,0.399,0.4042,0.4114,0.4169,0.4149,0.4312,0.4344,0.4495,0.4555,0.4555,0.4528,0.4506,0.4658,0.4673,0.4686,0.4665,0.4677,0.4524,0.4523,0.4522,0.4521,0,0.3747,0.3759,0.3775,0.3825,0.3885,0.3925,0.3941,0.4002,0.4038,0.4114,0.4143,0.423,0.427,0.4345,0.438,0.451,0.4437,0.4513,0.4589,0.4635,0.4654,0.4669,0.4652,0.4665,0.4515,0.4515,0.4516,0,0.3771,0.3798,0.3797,0.3847,0.3871,0.3929,0.3922,0.3958,0.4017,0.3993,0.4065,0.4102,0.4133,0.4221,0.4251,0.4205,0.4336,0.4298,0.4311,0.4295,0.4337,0.4359,0.4378,0.4126,0.4125,0.4124,0,0,0.3796,0.3804,0.3856,0.3854,0.3878,0.3913,0.3933,0.3954,0.3987,0.3999,0.4015,0.4043,0.4103,0.4117,0.4148,0.4202,0.417,0.4254,0.4272,0.4288,0.4281,0.4326,0.4348,0.412,0.412,0.412,0,0,0.3801,0.3843,0.385,0.3857,0.3897,0.3934,0.3945,0.3963,0.3994,0.3992,0.3992,0.3994,0.407,0.4043,0.4,0.4134,0.4054,0.4062,0.4161,0.4183,0.4201,0.419,0.3951,0,0,0,0,0,0.3841,0.3841,0.3846,0.3852,0.3886,0.3931,0.3938,0.3957,0.3953,0.3968,0.3992,0.3957,0.4037,0.3998,0.3997,0.4072,0.4075,0.4083,0.409,0.4231,0.4255,0.4275,0,0,0,0,0,0,0.3844,0.3849,0.3847,0.3881,0.389,0.393,0.3921,0.3927,0.3952,0.3952,0.3957,0.3957,0.3951,0.3995,0.3995,0.4068,0.3951,0.4078,0.4085,0.4091,0.4239,0.4259,0.4275,0,0,0,0,0,0.3846,0.385,0.3892,0.3882,0.3889,0.3921,0.392,0.3925,0.3941,0.3946,0.3947,0.3957,0.3951,0.3952,0.3995,0.407,0.395,0.3951,0.4082,0.4088,0.4093,0.4249,0,0,0,0,0,0,0.3848,0.3853,0.3895,0.39,0.3876,0.392,0.3924,0.3923,0.3933,0.3936,0.3944,0.3944,0.3952,0.3952,0.3952,0.4074,0.395,0.395,0.395,0.4086,0.4091,0.4094,0,0,0,0,0,0,0.3852,0.3856,0.3897,0.3889,0.3892,0.3919,0.3923,0.3927,0.3932,0.3928,0.393,0.3943,0.3942,0.3952,0.3952,0.396,0.3949,0.395,0.395,0.395,0.409,0.4093,0,0,0,0,0,0,0.3855,0.3859,0.3887,0.389,0.3893,0.3941,0.3922,0.3946,0.3952,0.3926,0.3951,0.395,0.3942,0.3942,0.3952,0.396,0.396,0.3949,0.395,0.395,0.395,0,0,0,0,0,0,0,0.3857,0.3819,0.3874,0.3891,0.3894,0.3941,0.3942,0.3943,0.3952,0.3952,0.3951,0.3951,0.3948,0.3948,0.3948,0.396,0,0,0.3949,0.395,0,0,0,0,0,0,0,0,0.3819,0.3819,0.3874,0.3875,0.3876,0.3942,0.3942,0.3943,0.3952,0.3952,0.3951,0.3951,0.3948,0.3948,0.3948,0,0,0,0,0,0,0,0,0,0,0,0,0,0,0,0.3874,0.3875,0,0.3942,0.3942,0.3943,0.3952,0.3952,0.3951,0.3951,0.3948,0.3948,0.3948,0,0,0,0,0,0,0,0,0,0,0,0,0,0,0,0,0,0,0,0,0,0,0,0,0,0,0,0,0,0,0,0,0,0,0,0,0,0,0,0,0,0,0,0,0,0,0,0,0,0,0,0,0,0,0,0,0,0,0,0,0,0,0,0,0,0,0,0,0]}],[{"header":{"parameterUnit":"kt","parameterCategory":2,"dx":1,"dy":1,"la1":30.253999710083008,"la2":30.299108505249023,"lo1":-89.0895004272461,"lo2":-89.04439544677734,"nx":28,"ny":28,"refTime":"2022-10-28T21:00:00:Z","depth":"0","parameterNumber":3,"parameterNumberName":"V-component_of_CURRENTS"},"data":[0.0272,0.0315,0.0344,0.0443,0.0499,0.0611,0.0684,0.0901,0.114,0.1601,0.1923,0.2124,0.2078,0.1915,0.1788,0.1727,0.1699,0.1693,0.1636,0.1495,0.1466,0.1437,0.145,0.1717,0.1717,0.1872,0.1873,0.1874,0.026,0.0289,0.0332,0.0394,0.0445,0.0453,0.0526,0.0638,0.0841,0.1114,0.135,0.1681,0.1811,0.1755,0.1634,0.1544,0.148,0.1468,0.1471,0.1493,0.1324,0.1342,0.1589,0.1589,0.1589,0.1589,0.1589,0.1589,0.0241,0.0266,0.0302,0.0346,0.0375,0.0417,0.0472,0.0532,0.0626,0.0815,0.0855,0.1162,0.1259,0.1368,0.1302,0.122,0.1159,0.1187,0.116,0.114,0.1205,0.1003,0.1189,0.1188,0.1186,0.1185,0.1184,0,0.0225,0.024,0.0262,0.031,0.0331,0.0349,0.0364,0.0382,0.0373,0.045,0.0582,0.0701,0.0818,0.0994,0.1013,0.1003,0.0868,0.0857,0.0856,0.099,0.0997,0.1049,0.0777,0.0945,0.0942,0.094,0.0938,0.0937,0.0206,0.0221,0.025,0.0271,0.0277,0.0286,0.0291,0.0262,0.0273,0.0302,0.0332,0.0415,0.0547,0.0658,0.0664,0.0733,0.0687,0.0785,0.0732,0.0746,0.0732,0.0714,0.0752,0.0903,0.0908,0.0911,0.0914,0,0.0192,0.0201,0.0221,0.0226,0.0229,0.0238,0.0226,0.0228,0.0207,0.0234,0.0239,0.0242,0.0351,0.0355,0.0424,0.0398,0.0522,0.0483,0.0595,0.0624,0.0694,0.0672,0.0825,0.0886,0.0587,0.059,0.0591,0,0.017,0.0181,0.0193,0.0203,0.0212,0.0189,0.0191,0.0175,0.0159,0.0176,0.0138,0.0171,0.0165,0.0218,0.0235,0.0327,0.0316,0.0333,0.0351,0.0442,0.0454,0.0512,0.0497,0.0281,0.028,0.0279,0.0279,0,0.0153,0.0163,0.0175,0.0175,0.0169,0.0162,0.0152,0.0131,0.0124,0.0114,0.0123,0.0114,0.0129,0.0161,0.0194,0.0165,0.0276,0.0235,0.0307,0.0311,0.0459,0.0475,0.0562,0.0278,0.0277,0.0277,0.0277,0,0.0132,0.0146,0.016,0.0153,0.0154,0.0152,0.0134,0.0123,0.0106,0.0099,0.008,0.0073,0.0068,0.0056,0.0105,0.0083,0.0107,0.0122,0.0127,0.0218,0.0214,0.0414,0.047,0.0488,0.0169,0.0168,0.0167,0,0.0112,0.0137,0.013,0.0137,0.0148,0.0131,0.0119,0.0106,0.0097,0.0096,0.006,0.0048,0.0021,0.0011,0.0017,0.0039,0.0056,0.0006,0.0129,0.0133,0.0198,0.0216,0.0339,0.0443,0.0153,0.0154,0.0155,0,0.01,0.0116,0.012,0.0125,0.0124,0.0129,0.0113,0.0106,0.0103,0.0091,0.0086,0.0028,0.0027,0.0014,-0.0016,-0.0001,0.0032,0.0024,0.0027,0.0073,0.0125,0.0188,0.0204,0.0042,0.0043,0.0044,0.0144,0,0.0097,0.0104,0.0109,0.0123,0.0122,0.0128,0.0126,0.0123,0.0118,0.0117,0.0086,0.0063,0.0048,0.0017,0.0007,-0.0003,0.0024,0.0024,0.0057,0.004,0.0083,0.0092,0.0002,0.0003,0.0004,0.0005,0,0,0.0085,0.0097,0.0105,0.0117,0.0118,0.0124,0.013,0.013,0.0135,0.0127,0.0132,0.0095,0.0078,0.0035,0.0017,0.0007,0.0047,0.003,0.0035,0.0038,0.0042,0.0083,0.009,0.0006,0.0006,0.0007,0.0007,0,0.0091,0.0091,0.0101,0.0109,0.0123,0.0128,0.0129,0.0143,0.0142,0.0136,0.0124,0.0098,0.0091,0.0069,0.0057,0.002,0.0065,0.0011,0.0008,0.004,0.0042,0.0044,0.0085,0.0091,0.0009,0.0009,0.0009,0,0.009,0.0099,0.0101,0.0115,0.0125,0.0133,0.0141,0.015,0.0148,0.0153,0.0149,0.0134,0.0123,0.0099,0.009,0.0103,0.0096,0.0074,0.007,0.0096,0.0134,0.0135,0.0136,0.0127,0.0127,0.0127,0,0,0.0096,0.0101,0.0115,0.0117,0.0123,0.0137,0.0143,0.015,0.0154,0.0155,0.0157,0.0151,0.0132,0.0127,0.0121,0.0104,0.0144,0.0087,0.0082,0.0077,0.01,0.0136,0.0136,0.0128,0.0128,0.0128,0,0,0.01,0.0115,0.0118,0.0121,0.0132,0.015,0.0155,0.016,0.0161,0.0158,0.0163,0.0162,0.0141,0.0149,0.0162,0.0123,0.0148,0.0145,0.0114,0.0107,0.0102,0.0131,0.0177,0,0,0,0,0,0.0114,0.0113,0.0115,0.0117,0.0133,0.0146,0.015,0.0163,0.0164,0.0168,0.0163,0.0172,0.0154,0.0165,0.0165,0.0141,0.0141,0.0139,0.0137,0.0092,0.0085,0.0079,0,0,0,0,0,0,0.0114,0.0117,0.0115,0.0131,0.0135,0.0146,0.0154,0.0158,0.0164,0.0166,0.0172,0.0173,0.0178,0.0166,0.0166,0.0142,0.0177,0.014,0.0139,0.0137,0.009,0.0084,0.0079,0,0,0,0,0,0.0115,0.0117,0.0137,0.0132,0.0135,0.0152,0.0154,0.0157,0.0163,0.017,0.0172,0.0172,0.0178,0.0178,0.0166,0.0141,0.0178,0.0178,0.0139,0.0138,0.0136,0.0087,0,0,0,0,0,0,0.0116,0.0122,0.0139,0.014,0.0132,0.0152,0.0155,0.0157,0.0167,0.0169,0.017,0.0171,0.0178,0.0178,0.0177,0.014,0.0178,0.0178,0.0178,0.0138,0.0137,0.0136,0,0,0,0,0,0,0.0122,0.0124,0.014,0.0139,0.0141,0.0152,0.0155,0.0153,0.0166,0.0166,0.0168,0.017,0.0171,0.0177,0.0177,0.0175,0.0178,0.0178,0.0178,0.0178,0.0137,0.0136,0,0,0,0,0,0,0.0123,0.0125,0.0139,0.014,0.0142,0.0164,0.015,0.0162,0.0178,0.0165,0.0178,0.0179,0.017,0.0171,0.0177,0.0175,0.0175,0.0178,0.0178,0.0178,0.0178,0,0,0,0,0,0,0,0.0124,0.0106,0.0127,0.0141,0.0143,0.0157,0.0158,0.0158,0.0178,0.0178,0.0178,0.0178,0.0179,0.0178,0.0178,0.0175,0,0,0.0178,0.0178,0,0,0,0,0,0,0,0,0.0106,0.0106,0.0127,0.0128,0.0128,0.0157,0.0158,0.0158,0.0178,0.0178,0.0178,0.0178,0.0179,0.0178,0.0178,0,0,0,0,0,0,0,0,0,0,0,0,0,0,0,0.0127,0.0128,0,0.0157,0.0158,0.0158,0.0178,0.0178,0.0178,0.0178,0.0179,0.0178,0.0178,0,0,0,0,0,0,0,0,0,0,0,0,0,0,0,0,0,0,0,0,0,0,0,0,0,0,0,0,0,0,0,0,0,0,0,0,0,0,0,0,0,0,0,0,0,0,0,0,0,0,0,0,0,0,0,0,0,0,0,0,0,0,0,0,0,0,0,0,0]}]],[[{"header":{"parameterUnit":"kt","parameterCategory":2,"dx":1,"dy":1,"la1":30.253999710083008,"la2":30.299108505249023,"lo1":-89.0895004272461,"lo2":-89.04439544677734,"nx":28,"ny":28,"refTime":"2022-10-28T21:00:00:Z","depth":"2","parameterNumber":2,"parameterNumberName":"U-component_of_CURRENTS"},"data":[0.2118,0.2105,0.2087,0.2047,0.2081,0.2047,0.2037,0.1852,0.173,0.1471,0.1306,0.1261,0.1322,0.0908,0.0839,0.0689,0.0967,0.0624,0.1422,0.1521,0.1585,0.1755,0.156,0,0,0,0,0,0.2135,0.2134,0.2163,0.2176,0.2194,0.2279,0.2304,0.2192,0.2133,0.2063,0.2027,0.1699,0.1471,0.1479,0.123,0.1177,0.1203,0.1137,0.1163,0.1236,0.1302,0.1127,0.0584,0.0582,0.058,0.0578,0,0,0.2179,0.2174,0.2219,0.2243,0.2317,0.2342,0.2315,0.2359,0.2405,0.2378,0.2529,0.2391,0.2326,0.2033,0.1953,0.1898,0.2116,0.199,0.202,0.2057,0.1916,0.1794,0.1584,0.1589,0.1593,0.1596,0.1599,0,0.2194,0.2219,0.2241,0.23,0.2348,0.2374,0.2454,0.2496,0.2611,0.2695,0.2763,0.2782,0.2792,0.2572,0.255,0.2494,0.2614,0.2482,0.3113,0.2333,0.2219,0.2191,0.2214,0.2115,0.2123,0.2128,0.2132,0.2135,0.2243,0.2242,0.23,0.2324,0.2336,0.2397,0.2449,0.2555,0.2616,0.2771,0.2835,0.2977,0.2996,0.3063,0.2989,0.2975,0.3179,0.2667,0.2547,0.301,0.2981,0.2976,0.2971,0.2217,0.2207,0.2198,0.2191,0,0.2267,0.2283,0.2291,0.2334,0.2357,0.2394,0.2494,0.2535,0.2656,0.2784,0.2848,0.3009,0.3083,0.3209,0.3322,0.3263,0.3267,0.3249,0.2879,0.2805,0.3013,0.2999,0.3053,0.3046,0.304,0.3035,0.3031,0,0.2292,0.2295,0.2342,0.2338,0.2359,0.2429,0.2473,0.2524,0.2663,0.2738,0.2867,0.2949,0.3119,0.3216,0.3241,0.3231,0.3372,0.3174,0.3148,0.2863,0.2817,0.3313,0.3298,0.3429,0.3428,0.3428,0.3427,0,0.2347,0.2338,0.2356,0.2355,0.2378,0.242,0.2445,0.2548,0.2602,0.2734,0.2826,0.2959,0.305,0.3143,0.3183,0.3182,0.3334,0.3297,0.3151,0.3134,0.2874,0.2827,0.3427,0.3427,0.3426,0.3426,0.3426,0,0.235,0.2358,0.2381,0.2392,0.2402,0.2404,0.248,0.2495,0.2603,0.2673,0.2826,0.2898,0.2985,0.2984,0.3113,0.31,0.3142,0.3164,0.3167,0.2972,0.2893,0.2631,0.2619,0.3151,0.3149,0.3147,0.3145,0,0.2381,0.2382,0.2393,0.2384,0.2398,0.2439,0.2442,0.2514,0.2567,0.2628,0.2726,0.2798,0.2813,0.2871,0.2925,0.2966,0.3016,0.2943,0.3083,0.3085,0.2867,0.2923,0.2588,0.2609,0.312,0.3123,0.3124,0,0.2411,0.2398,0.2398,0.2404,0.2435,0.2437,0.2471,0.2509,0.2529,0.261,0.2684,0.2733,0.2807,0.2825,0.2847,0.2881,0.2962,0.2916,0.2918,0.2926,0.3137,0.2914,0.291,0.3023,0.3026,0.3029,0.3105,0,0.2429,0.2424,0.2411,0.2417,0.2441,0.2433,0.2458,0.2478,0.2509,0.2535,0.2653,0.2659,0.2731,0.274,0.2723,0.2827,0.2858,0.2852,0.28,0.2871,0.289,0.2906,0.2714,0.2713,0.2713,0.2712,0,0,0.2466,0.2435,0.2448,0.2447,0.2457,0.2461,0.2478,0.2458,0.2473,0.2514,0.252,0.2638,0.2613,0.2677,0.2707,0.2691,0.2759,0.2713,0.2829,0.2842,0.2854,0.2877,0.2892,0.2712,0.2711,0.2711,0.2711,0,0.2454,0.2451,0.2457,0.2449,0.2474,0.2462,0.2466,0.2471,0.2484,0.2497,0.254,0.2585,0.2605,0.2625,0.2634,0.2681,0.2729,0.274,0.2757,0.2823,0.2836,0.2848,0.2872,0.2886,0.271,0.271,0.271,0,0.2481,0.2478,0.2479,0.2466,0.2459,0.2452,0.2457,0.2468,0.2467,0.2471,0.2474,0.2529,0.2546,0.2589,0.2609,0.2573,0.2669,0.2622,0.2626,0.2651,0.2718,0.2733,0.2747,0.2571,0.2571,0.257,0,0,0.2492,0.2486,0.2488,0.2468,0.2473,0.2459,0.245,0.2474,0.2466,0.2465,0.2469,0.2498,0.2533,0.2529,0.257,0.256,0.2585,0.2603,0.261,0.2615,0.2643,0.2711,0.2726,0.2568,0.2568,0.2568,0,0,0.2487,0.2493,0.2511,0.2494,0.2485,0.2455,0.2449,0.2445,0.2439,0.2475,0.2462,0.2467,0.2521,0.2506,0.2473,0.2565,0.2542,0.2547,0.2552,0.256,0.2567,0.2597,0.2486,0,0,0,0,0,0.2509,0.2492,0.251,0.2509,0.248,0.2447,0.2442,0.2452,0.246,0.2448,0.2465,0.2471,0.2516,0.2486,0.2482,0.2526,0.2537,0.2542,0.2547,0.2558,0.2567,0.2574,0,0,0,0,0,0,0.2508,0.2504,0.251,0.2481,0.2476,0.2447,0.2468,0.2468,0.2463,0.2467,0.2466,0.247,0.248,0.2488,0.2484,0.2527,0.2487,0.2539,0.2544,0.2548,0.2561,0.2568,0.2575,0,0,0,0,0,0.2507,0.2504,0.2464,0.248,0.2476,0.2484,0.247,0.247,0.2457,0.2474,0.2477,0.2472,0.2478,0.2478,0.2485,0.253,0.2489,0.2488,0.2542,0.2546,0.2549,0.2565,0,0,0,0,0,0,0.2507,0.2484,0.2462,0.2461,0.2507,0.2486,0.2484,0.2472,0.2464,0.2468,0.2482,0.2485,0.2476,0.2477,0.2476,0.2533,0.2491,0.249,0.2489,0.2545,0.2548,0.255,0,0,0,0,0,0,0.2487,0.2482,0.2461,0.2494,0.2496,0.2488,0.2486,0.2465,0.2465,0.247,0.2474,0.2484,0.2501,0.2475,0.2475,0.2439,0.2493,0.2492,0.2491,0.249,0.2547,0.2549,0,0,0,0,0,0,0.2485,0.2481,0.2493,0.2495,0.2496,0.2475,0.247,0.245,0.2468,0.247,0.2475,0.2478,0.25,0.2499,0.2474,0.2438,0.2439,0.2493,0.2492,0.2491,0.2491,0,0,0,0,0,0,0,0.2483,0.251,0.2482,0.2496,0.2497,0.2452,0.245,0.2449,0.2469,0.2472,0.2474,0.2477,0.25,0.2499,0.2497,0.2436,0,0,0.2493,0.2492,0,0,0,0,0,0,0,0,0.2511,0.251,0.2482,0.2482,0.2483,0.2452,0.245,0.2449,0.2469,0.2472,0.2474,0.2476,0.25,0.2499,0.2498,0,0,0,0,0,0,0,0,0,0,0,0,0,0,0,0.2482,0.2482,0,0.2451,0.245,0.2449,0.247,0.2471,0.2473,0.2475,0.2499,0.2499,0.2498,0,0,0,0,0,0,0,0,0,0,0,0,0,0,0,0,0,0,0,0,0,0,0,0,0,0,0,0,0,0,0,0,0,0,0,0,0,0,0,0,0,0,0,0,0,0,0,0,0,0,0,0,0,0,0,0,0,0,0,0,0,0,0,0,0,0,0,0,0]}],[{"header":{"parameterUnit":"kt","parameterCategory":2,"dx":1,"dy":1,"la1":30.253999710083008,"la2":30.299108505249023,"lo1":-89.0895004272461,"lo2":-89.04439544677734,"nx":28,"ny":28,"refTime":"2022-10-28T21:00:00:Z","depth":"2","parameterNumber":3,"parameterNumberName":"V-component_of_CURRENTS"},"data":[0.0463,0.0572,0.0638,0.0879,0.0993,0.1226,0.1369,0.1626,0.1754,0.1938,0.1921,0.2001,0.1725,0.1445,0.1254,0.1042,0.095,0.0978,0.1082,0.1053,0.105,0.0883,0.0845,0,0,0,0,0,0.0422,0.0495,0.06,0.0769,0.0907,0.0941,0.1173,0.1353,0.1646,0.1779,0.1967,0.1791,0.1716,0.1472,0.113,0.0986,0.0921,0.088,0.0834,0.0831,0.0828,0.0801,0.0859,0.0857,0.0856,0.0855,0,0,0.0363,0.0422,0.0516,0.0633,0.0739,0.0907,0.1048,0.1225,0.1422,0.1646,0.1709,0.1811,0.1658,0.1423,0.1278,0.1013,0.1038,0.0907,0.0903,0.0898,0.0879,0.0871,0.0955,0.0955,0.0955,0.0955,0.0955,0,0.0333,0.0366,0.0439,0.0549,0.0654,0.0775,0.0899,0.0993,0.112,0.1244,0.1451,0.1553,0.1493,0.1421,0.122,0.1147,0.0911,0.0909,0.0881,0.0791,0.0781,0.0778,0.0768,0.0851,0.0851,0.085,0.085,0.0849,0.0296,0.0334,0.0443,0.0501,0.0554,0.0645,0.0733,0.0801,0.0897,0.1044,0.1129,0.1164,0.1271,0.123,0.1076,0.1002,0.0914,0.0895,0.0813,0.0756,0.0754,0.0745,0.0737,0.0842,0.0843,0.0844,0.0844,0,0.0281,0.0322,0.0409,0.0506,0.0536,0.0596,0.0702,0.0791,0.0813,0.0932,0.0947,0.0969,0.1012,0.0928,0.0904,0.082,0.082,0.0796,0.0794,0.08,0.0734,0.0727,0.082,0.0822,0.0823,0.0824,0.0825,0,0.0275,0.033,0.0401,0.0442,0.0532,0.056,0.0653,0.0686,0.0744,0.0839,0.0785,0.0875,0.0767,0.0786,0.0735,0.0732,0.0748,0.0663,0.0671,0.0663,0.0664,0.0587,0.0578,0.0651,0.065,0.0649,0.0649,0,0.0236,0.0328,0.0381,0.0409,0.0496,0.0533,0.0575,0.0618,0.0664,0.0699,0.0737,0.0736,0.0745,0.072,0.0678,0.0635,0.0695,0.0654,0.0641,0.0643,0.0646,0.0646,0.0648,0.0648,0.0648,0.0648,0.0647,0,0.0233,0.0279,0.0339,0.0429,0.0449,0.0492,0.0559,0.0593,0.0638,0.0642,0.064,0.0628,0.0648,0.0578,0.0594,0.0563,0.0529,0.0521,0.0524,0.0528,0.0513,0.0593,0.065,0.0555,0.0554,0.0553,0.0553,0,0.0197,0.0266,0.0284,0.0358,0.0396,0.041,0.0454,0.0478,0.0491,0.054,0.0523,0.0546,0.0477,0.0479,0.048,0.0476,0.0488,0.0449,0.0479,0.0481,0.0507,0.0556,0.0558,0.0632,0.054,0.0541,0.0542,0,0.0163,0.023,0.0238,0.0277,0.0303,0.0335,0.0361,0.0402,0.0444,0.0433,0.0478,0.0459,0.0438,0.0438,0.0417,0.0434,0.047,0.0389,0.039,0.0436,0.0519,0.0537,0.0547,0.0449,0.045,0.0451,0.0533,0,0.0169,0.0196,0.0217,0.0258,0.0273,0.0304,0.0322,0.0341,0.0338,0.0352,0.0362,0.0357,0.0365,0.0358,0.0337,0.0366,0.035,0.0335,0.0346,0.0365,0.0396,0.0404,0.0299,0.0298,0.0297,0.0297,0,0,0.0129,0.0165,0.0172,0.0205,0.0223,0.0227,0.0254,0.0276,0.0294,0.0305,0.0284,0.029,0.0287,0.0321,0.0313,0.0309,0.0308,0.0309,0.0345,0.035,0.0355,0.0387,0.0395,0.0296,0.0295,0.0295,0.0295,0,0.0137,0.0142,0.0161,0.0184,0.0205,0.0223,0.0226,0.0249,0.0258,0.0274,0.0259,0.0261,0.0263,0.028,0.0284,0.0297,0.0293,0.0274,0.0313,0.0338,0.0344,0.035,0.0382,0.039,0.0293,0.0293,0.0293,0,0.012,0.0136,0.0141,0.0169,0.0188,0.0218,0.0208,0.0226,0.0248,0.0232,0.026,0.0241,0.0238,0.0253,0.0255,0.026,0.0295,0.0271,0.0273,0.0273,0.0299,0.0306,0.0311,0.024,0.024,0.024,0,0,0.0123,0.0137,0.0157,0.017,0.0181,0.02,0.0212,0.0216,0.023,0.0236,0.0242,0.0239,0.0238,0.0249,0.0242,0.0263,0.0271,0.0267,0.0269,0.0271,0.0273,0.0299,0.0305,0.024,0.024,0.024,0,0,0.0127,0.0148,0.0143,0.016,0.0181,0.0212,0.0227,0.0228,0.0241,0.0231,0.0236,0.0237,0.0237,0.0238,0.0242,0.0253,0.0238,0.0237,0.0272,0.0275,0.0277,0.0282,0.0241,0,0,0,0,0,0.0133,0.0145,0.014,0.0144,0.0176,0.021,0.0216,0.0229,0.022,0.0235,0.0233,0.0231,0.0239,0.0243,0.0245,0.0258,0.0244,0.0243,0.0243,0.0289,0.0292,0.0295,0,0,0,0,0,0,0.0135,0.014,0.014,0.0168,0.0175,0.021,0.0204,0.0209,0.0219,0.022,0.0232,0.0232,0.0237,0.0242,0.0244,0.0257,0.024,0.0244,0.0243,0.0243,0.029,0.0293,0.0295,0,0,0,0,0,0.0136,0.014,0.0184,0.0169,0.0175,0.0195,0.0204,0.0208,0.0219,0.0226,0.0228,0.0226,0.0237,0.0238,0.0243,0.0256,0.0239,0.024,0.0243,0.0243,0.0242,0.0291,0,0,0,0,0,0,0.0137,0.0152,0.0186,0.0189,0.0161,0.0194,0.0199,0.0207,0.0225,0.0226,0.022,0.0221,0.0238,0.0238,0.0239,0.0256,0.0238,0.0239,0.0239,0.0243,0.0243,0.0242,0,0,0,0,0,0,0.015,0.0154,0.0188,0.0178,0.0179,0.0193,0.0197,0.0205,0.0224,0.0218,0.0219,0.022,0.0223,0.0238,0.0239,0.0252,0.0238,0.0238,0.0239,0.0239,0.0243,0.0242,0,0,0,0,0,0,0.0152,0.0156,0.0177,0.0179,0.018,0.0215,0.0199,0.0225,0.0234,0.0217,0.0232,0.0232,0.0222,0.0224,0.0239,0.0252,0.0252,0.0238,0.0238,0.0238,0.0239,0,0,0,0,0,0,0,0.0154,0.0121,0.0166,0.018,0.0181,0.0214,0.0215,0.0216,0.0234,0.0233,0.0233,0.0232,0.0234,0.0235,0.0236,0.0252,0,0,0.0238,0.0238,0,0,0,0,0,0,0,0,0.012,0.0121,0.0166,0.0167,0.0167,0.0214,0.0215,0.0216,0.0234,0.0233,0.0233,0.0232,0.0235,0.0235,0.0236,0,0,0,0,0,0,0,0,0,0,0,0,0,0,0,0.0166,0.0167,0,0.0214,0.0215,0.0215,0.0234,0.0233,0.0233,0.0232,0.0235,0.0235,0.0236,0,0,0,0,0,0,0,0,0,0,0,0,0,0,0,0,0,0,0,0,0,0,0,0,0,0,0,0,0,0,0,0,0,0,0,0,0,0,0,0,0,0,0,0,0,0,0,0,0,0,0,0,0,0,0,0,0,0,0,0,0,0,0,0,0,0,0,0,0]}]],[[{"header":{"parameterUnit":"kt","parameterCategory":2,"dx":1,"dy":1,"la1":30.253999710083008,"la2":30.299108505249023,"lo1":-89.0895004272461,"lo2":-89.04439544677734,"nx":28,"ny":28,"refTime":"2022-10-28T21:00:00:Z","depth":"4","parameterNumber":2,"parameterNumberName":"U-component_of_CURRENTS"},"data":[0.0493,0.0447,0.0401,0.0228,0.0156,0.0067,0.0059,0.0112,0.0114,0.0235,0.0345,0.0442,0.0639,0.0653,0.0813,0.0846,0.0897,0.1119,0.1115,0.127,0.1287,0.1301,0.1068,0,0,0,0,0,0.0528,0.0489,0.0419,0.0317,0.0254,0.0226,0.0209,0.0237,0.032,0.0318,0.0371,0.0507,0.0662,0.0746,0.0824,0.0918,0.114,0.0994,0.1115,0.128,0.1298,0.1066,0,0,0,0,0,0,0.056,0.0536,0.0492,0.0434,0.0382,0.0296,0.0309,0.031,0.0314,0.0418,0.0435,0.0615,0.0735,0.0846,0.101,0.1114,0.113,0.1098,0.1125,0.1143,0.093,0.0818,0.0809,0,0,0,0,0,0.0594,0.0605,0.0558,0.0498,0.0483,0.0428,0.0418,0.0416,0.0453,0.0537,0.0568,0.0646,0.077,0.0937,0.1069,0.1243,0.1401,0.1387,0.1397,0.1312,0.126,0.1263,0.1257,0.1366,0.1368,0.137,0.1371,0,0.0664,0.0633,0.0589,0.0558,0.055,0.0542,0.0524,0.0555,0.0554,0.0625,0.0619,0.0749,0.082,0.1016,0.1168,0.1415,0.1378,0.1432,0.134,0.1287,0.1289,0.1277,0.1266,0.1385,0.1384,0.1383,0.1382,0,0.0706,0.0677,0.0614,0.058,0.058,0.0563,0.0558,0.0558,0.0622,0.0644,0.0677,0.0755,0.0923,0.1068,0.1299,0.1289,0.1438,0.1424,0.1512,0.1524,0.1302,0.1284,0.1409,0.1403,0.1399,0.1395,0.1392,0,0.0737,0.0699,0.0674,0.0634,0.06,0.0583,0.0585,0.0605,0.0643,0.064,0.0732,0.0765,0.0935,0.1049,0.1199,0.1291,0.1414,0.1293,0.1305,0.1374,0.1359,0.1424,0.1412,0.1508,0.1506,0.1504,0.1502,0,0.079,0.0723,0.0668,0.0645,0.0585,0.0601,0.059,0.0615,0.0613,0.0704,0.0739,0.0832,0.089,0.104,0.1165,0.1149,0.1372,0.1371,0.1276,0.1267,0.1408,0.14,0.15,0.1499,0.1499,0.1498,0.1498,0,0.0808,0.0755,0.0688,0.063,0.0612,0.0608,0.0618,0.0609,0.0652,0.0692,0.0739,0.0772,0.0859,0.0862,0.1059,0.0991,0.1083,0.1152,0.1163,0.1019,0.0994,0.1221,0.1287,0.1285,0.1282,0.1279,0.1277,0,0.0852,0.0771,0.0743,0.0695,0.0643,0.0658,0.0646,0.0656,0.0688,0.0727,0.0749,0.0775,0.0785,0.0813,0.086,0.0965,0.1024,0.0911,0.1151,0.1159,0.0967,0.0984,0.0985,0.1239,0.1244,0.1248,0.125,0,0.088,0.0798,0.0801,0.0768,0.0731,0.0714,0.0715,0.0703,0.072,0.0753,0.0774,0.0767,0.0815,0.0814,0.0822,0.0871,0.0974,0.0909,0.0914,0.0998,0.1166,0.0966,0.097,0.0971,0.0973,0.0976,0.1224,0,0.0866,0.0837,0.082,0.077,0.0758,0.0737,0.0728,0.0758,0.0784,0.0786,0.081,0.0837,0.0862,0.0842,0.0842,0.0872,0.0912,0.0902,0.0913,0.093,0.1038,0.1058,0.0839,0.084,0.0841,0.0842,0,0,0.0914,0.0855,0.0842,0.0806,0.0792,0.0811,0.0779,0.0782,0.0812,0.0825,0.0856,0.0876,0.0883,0.0856,0.086,0.0857,0.0924,0.0843,0.0914,0.0921,0.0928,0.1031,0.105,0.0844,0.0844,0.0845,0.0845,0,0.0889,0.087,0.0842,0.0827,0.0818,0.0805,0.0813,0.0811,0.0829,0.0841,0.0866,0.0893,0.0884,0.0885,0.0873,0.0869,0.091,0.0857,0.0848,0.0919,0.0925,0.093,0.1032,0.1048,0.0847,0.0847,0.0847,0,0.089,0.0866,0.0858,0.0823,0.0816,0.0789,0.0815,0.0817,0.0813,0.0847,0.0873,0.0889,0.0888,0.0879,0.0885,0.0888,0.0921,0.0866,0.0863,0.089,0.0965,0.0972,0.0977,0.0905,0.0905,0.0905,0,0,0.0877,0.0854,0.0828,0.0818,0.0806,0.0807,0.0809,0.0822,0.0835,0.0848,0.0874,0.0895,0.0886,0.0893,0.0901,0.0885,0.0951,0.0869,0.0866,0.0863,0.0888,0.0963,0.0969,0.0904,0.0904,0.0904,0,0,0.0879,0.0839,0.0845,0.0815,0.0815,0.0796,0.0801,0.0816,0.0838,0.0857,0.087,0.0877,0.0894,0.0904,0.0894,0.088,0.0899,0.09,0.0846,0.0843,0.0841,0.0867,0.0881,0,0,0,0,0,0.0858,0.0836,0.0841,0.0836,0.08,0.0783,0.0781,0.0805,0.0831,0.0835,0.087,0.0863,0.0908,0.0899,0.0896,0.0862,0.0892,0.0894,0.0896,0.0825,0.0822,0.0819,0,0,0,0,0,0,0.0856,0.0846,0.0843,0.0818,0.0811,0.0782,0.0804,0.0809,0.0832,0.084,0.0856,0.0861,0.0862,0.0899,0.0897,0.0864,0.0881,0.0893,0.0894,0.0896,0.0824,0.0821,0.0819,0,0,0,0,0,0.0855,0.0847,0.0782,0.0819,0.0813,0.0836,0.0807,0.0811,0.0831,0.0836,0.0843,0.0859,0.0859,0.0861,0.0898,0.0865,0.0883,0.0882,0.0894,0.0895,0.0896,0.0823,0,0,0,0,0,0,0.0854,0.084,0.0782,0.0782,0.0848,0.0841,0.0838,0.0812,0.0827,0.0834,0.0837,0.0842,0.0857,0.0859,0.086,0.0865,0.0884,0.0884,0.0883,0.0895,0.0896,0.0897,0,0,0,0,0,0,0.0846,0.0839,0.0782,0.0817,0.0821,0.0844,0.0842,0.0824,0.0828,0.0826,0.0831,0.0839,0.0875,0.0857,0.0858,0.0825,0.0885,0.0885,0.0884,0.0884,0.0896,0.0897,0,0,0,0,0,0,0.0844,0.0838,0.0817,0.082,0.0823,0.0819,0.083,0.08,0.0835,0.0825,0.0842,0.0846,0.0873,0.0874,0.0856,0.0823,0.0825,0.0885,0.0885,0.0884,0.0884,0,0,0,0,0,0,0,0.0842,0.0869,0.0791,0.0822,0.0825,0.0784,0.0783,0.0782,0.0835,0.0838,0.0842,0.0844,0.089,0.089,0.0889,0.082,0,0,0.0886,0.0885,0,0,0,0,0,0,0,0,0.0872,0.087,0.0791,0.0791,0.0792,0.0784,0.0783,0.0782,0.0836,0.0838,0.0841,0.0843,0.089,0.0889,0.0889,0,0,0,0,0,0,0,0,0,0,0,0,0,0,0,0.0791,0.0791,0,0.0784,0.0783,0.0782,0.0836,0.0838,0.084,0.0842,0.089,0.0889,0.0889,0,0,0,0,0,0,0,0,0,0,0,0,0,0,0,0,0,0,0,0,0,0,0,0,0,0,0,0,0,0,0,0,0,0,0,0,0,0,0,0,0,0,0,0,0,0,0,0,0,0,0,0,0,0,0,0,0,0,0,0,0,0,0,0,0,0,0,0,0]}],[{"header":{"parameterUnit":"kt","parameterCategory":2,"dx":1,"dy":1,"la1":30.253999710083008,"la2":30.299108505249023,"lo1":-89.0895004272461,"lo2":-89.04439544677734,"nx":28,"ny":28,"refTime":"2022-10-28T21:00:00:Z","depth":"4","parameterNumber":3,"parameterNumberName":"V-component_of_CURRENTS"},"data":[0.0603,0.07,0.0758,0.0933,0.1036,0.1204,0.1305,0.1374,0.138,0.1442,0.1378,0.137,0.1251,0.1389,0.1131,0.1105,0.1017,0.0974,0.0969,0.0876,0.0883,0.0889,0.0889,0,0,0,0,0,0.058,0.0651,0.0764,0.0916,0.1054,0.1144,0.1303,0.1374,0.1475,0.1485,0.1505,0.1464,0.1323,0.1288,0.1154,0.1183,0.1037,0.1016,0.0936,0.088,0.0888,0.0886,0,0,0,0,0,0,0.0555,0.0615,0.0731,0.0862,0.1007,0.1149,0.1227,0.1338,0.1427,0.1517,0.1531,0.1494,0.1499,0.1328,0.123,0.1112,0.1054,0.0965,0.0968,0.0974,0.0983,0.0987,0.0943,0,0,0,0,0,0.0537,0.0591,0.0687,0.083,0.0952,0.1102,0.1245,0.1302,0.1438,0.1489,0.1522,0.1467,0.1436,0.1336,0.1224,0.1107,0.1052,0.0995,0.0997,0.0955,0.0954,0.0926,0.0929,0.0916,0.0917,0.0918,0.0918,0,0.051,0.0569,0.0733,0.0809,0.0886,0.1025,0.1126,0.1242,0.1328,0.1438,0.1484,0.1501,0.1499,0.1353,0.128,0.1124,0.108,0.1016,0.0972,0.0966,0.0936,0.0937,0.0938,0.0924,0.0924,0.0923,0.0923,0,0.0498,0.0576,0.0695,0.0839,0.0887,0.0973,0.1141,0.1225,0.1286,0.1389,0.1417,0.145,0.1427,0.137,0.1294,0.1197,0.1107,0.1055,0.1144,0.1114,0.095,0.0949,0.0934,0.0932,0.093,0.0928,0.0927,0,0.0509,0.0586,0.0708,0.0768,0.0882,0.0963,0.1082,0.1131,0.1224,0.1306,0.131,0.1366,0.1335,0.1321,0.1244,0.1156,0.1194,0.1049,0.1016,0.1081,0.1079,0.1039,0.1032,0.11,0.1101,0.1101,0.1101,0,0.0472,0.0607,0.0701,0.0747,0.0875,0.0935,0.1002,0.1075,0.1143,0.1204,0.1236,0.128,0.1317,0.1267,0.1217,0.1201,0.1175,0.1133,0.1028,0.1022,0.1037,0.103,0.1101,0.1101,0.1101,0.1102,0.1102,0,0.0481,0.0554,0.0665,0.0786,0.0817,0.0878,0.0975,0.104,0.1102,0.1122,0.1172,0.118,0.1238,0.1189,0.1187,0.1189,0.1136,0.1101,0.1098,0.1008,0.0948,0.0963,0.1038,0.1038,0.1038,0.1038,0.1037,0,0.0438,0.0546,0.059,0.0696,0.0756,0.0797,0.0861,0.0913,0.0944,0.0998,0.1028,0.1085,0.1069,0.1104,0.1113,0.1091,0.1091,0.1093,0.1006,0.1003,0.0944,0.0999,0.1064,0.1035,0.1035,0.1035,0.1035,0,0.0393,0.05,0.0512,0.0568,0.064,0.0679,0.0744,0.0809,0.085,0.0887,0.0949,0.1014,0.1012,0.1035,0.1049,0.1056,0.1082,0.1016,0.1013,0.1002,0.1061,0.1002,0.0997,0.106,0.1061,0.1062,0.1033,0,0.0404,0.0454,0.0481,0.0551,0.0587,0.0635,0.0673,0.0708,0.0721,0.0745,0.0814,0.0837,0.0884,0.0904,0.0907,0.0974,0.0945,0.0915,0.0881,0.0938,0.0917,0.0919,0.0867,0.0865,0.0863,0.0862,0,0,0.0348,0.0405,0.042,0.0472,0.0507,0.0508,0.0561,0.0591,0.0632,0.0657,0.0643,0.0721,0.0732,0.082,0.0855,0.085,0.0832,0.0865,0.0911,0.0917,0.0922,0.0905,0.0909,0.0859,0.0859,0.0858,0.0858,0,0.0351,0.0372,0.0407,0.0441,0.0479,0.0499,0.0506,0.0543,0.0568,0.0614,0.0617,0.0651,0.0695,0.0734,0.0754,0.0824,0.0793,0.0836,0.0908,0.0898,0.0906,0.0913,0.0898,0.0903,0.0854,0.0854,0.0854,0,0.0329,0.0355,0.0369,0.0414,0.0438,0.0481,0.0462,0.0495,0.0535,0.0515,0.0573,0.0582,0.0602,0.0666,0.0687,0.0672,0.0751,0.0739,0.0746,0.0748,0.0735,0.0744,0.0753,0.0641,0.0641,0.0641,0,0,0.0331,0.036,0.0389,0.0414,0.043,0.0451,0.0466,0.0481,0.0504,0.0517,0.0533,0.0554,0.0586,0.0608,0.0628,0.0679,0.0651,0.0716,0.0726,0.0735,0.0741,0.073,0.074,0.0639,0.0639,0.0639,0,0,0.0329,0.0365,0.0369,0.0401,0.0428,0.046,0.0479,0.0481,0.051,0.0511,0.0516,0.0521,0.0567,0.0564,0.0542,0.0639,0.0592,0.0597,0.066,0.0672,0.0682,0.0687,0.0536,0,0,0,0,0,0.0337,0.0359,0.0363,0.037,0.0418,0.0456,0.0463,0.0482,0.047,0.0493,0.0506,0.0501,0.0564,0.0545,0.055,0.0605,0.0619,0.0623,0.0626,0.0717,0.073,0.074,0,0,0,0,0,0,0.034,0.035,0.0362,0.0392,0.0402,0.0456,0.0449,0.0456,0.047,0.0472,0.0499,0.0501,0.0513,0.0543,0.0547,0.0601,0.0535,0.0621,0.0624,0.0626,0.0721,0.0732,0.0741,0,0,0,0,0,0.0342,0.035,0.0423,0.0392,0.0401,0.0427,0.0449,0.0454,0.0472,0.0488,0.0492,0.0483,0.0513,0.0517,0.0545,0.06,0.0532,0.0533,0.0623,0.0625,0.0627,0.0726,0,0,0,0,0,0,0.0344,0.0364,0.0426,0.0429,0.0385,0.0425,0.0433,0.0453,0.0488,0.0492,0.0472,0.0473,0.0514,0.0517,0.052,0.0601,0.053,0.0531,0.0532,0.0624,0.0626,0.0628,0,0,0,0,0,0,0.0359,0.0367,0.0428,0.0417,0.042,0.0424,0.0431,0.0448,0.0488,0.0472,0.0473,0.0471,0.0497,0.0516,0.0519,0.0545,0.0528,0.0529,0.053,0.0531,0.0626,0.0627,0,0,0,0,0,0,0.0363,0.0369,0.0417,0.0419,0.0421,0.0462,0.0439,0.0484,0.0491,0.047,0.049,0.0489,0.0495,0.0499,0.0518,0.0544,0.0545,0.0528,0.0529,0.053,0.053,0,0,0,0,0,0,0,0.0366,0.0319,0.0401,0.042,0.0422,0.0456,0.0457,0.0459,0.0491,0.049,0.049,0.0489,0.0519,0.0521,0.0523,0.0542,0,0,0.0528,0.0528,0,0,0,0,0,0,0,0,0.0317,0.0319,0.0401,0.0401,0.0401,0.0456,0.0457,0.0458,0.049,0.049,0.049,0.0489,0.052,0.0521,0.0522,0,0,0,0,0,0,0,0,0,0,0,0,0,0,0,0.0401,0.0401,0,0.0456,0.0457,0.0458,0.049,0.049,0.049,0.049,0.052,0.0521,0.0522,0,0,0,0,0,0,0,0,0,0,0,0,0,0,0,0,0,0,0,0,0,0,0,0,0,0,0,0,0,0,0,0,0,0,0,0,0,0,0,0,0,0,0,0,0,0,0,0,0,0,0,0,0,0,0,0,0,0,0,0,0,0,0,0,0,0,0,0,0]}]]]